Time,TemperatureF,DewpointF,PressureIn,WindDirection,WindDirectionDegrees,WindSpeedMPH,WindSpeedGustMPH,Humidity,HourlyPrecipIn,Conditions,Clouds,dailyrainin,SolarRadiationWatts/m^2,SoftwareType,DateUTC
2013-06-26 00:01:00,56.0,52.5,30.62,NNW,345,0.0,0.0,88,0.00,,,0.01,0.00,VWS V14.00,2013-06-26 06:01:00,
2013-06-26 00:06:00,56.0,52.5,30.62,NNW,345,0.0,0.0,88,0.00,,,0.01,0.00,VWS V14.00,2013-06-26 06:06:00,
2013-06-26 00:11:00,55.9,52.7,30.60,NNW,345,0.0,0.0,89,0.00,,,0.00,0.00,VWS V14.00,2013-06-26 06:11:00,
2013-06-26 00:16:00,55.9,52.7,30.60,NNW,345,0.0,0.0,89,0.00,,,0.00,0.00,VWS V14.00,2013-06-26 06:16:00,
2013-06-26 00:21:00,55.8,52.3,30.60,NNW,345,0.0,0.0,88,0.00,,,0.00,0.00,VWS V14.00,2013-06-26 06:21:00,
2013-06-26 00:26:00,55.8,52.3,30.60,NNW,345,0.0,0.0,88,0.00,,,0.00,0.00,VWS V14.00,2013-06-26 06:26:00,
2013-06-26 00:31:00,55.7,52.2,30.60,NNW,345,0.0,0.0,88,0.00,,,0.00,0.00,VWS V14.00,2013-06-26 06:31:00,
2013-06-26 00:36:00,55.7,52.2,30.61,NNW,345,0.0,0.0,88,0.00,,,0.00,0.00,VWS V14.00,2013-06-26 06:36:00,
2013-06-26 00:41:00,55.7,52.5,30.60,NNW,345,0.0,0.0,89,0.00,,,0.00,0.00,VWS V14.00,2013-06-26 06:41:00,
2013-06-26 00:46:00,55.7,52.5,30.61,NNW,345,0.0,0.0,89,0.00,,,0.00,0.00,VWS V14.00,2013-06-26 06:46:00,
2013-06-26 00:51:00,55.7,52.5,30.61,NNW,345,0.0,0.0,89,0.00,,,0.00,0.00,VWS V14.00,2013-06-26 06:51:00,
2013-06-26 00:56:00,55.7,52.5,30.61,NNW,345,0.0,0.0,89,0.00,,,0.00,0.00,VWS V14.00,2013-06-26 06:56:00,
2013-06-26 01:01:00,55.7,52.5,30.61,NNW,345,0.0,0.0,89,0.00,,,0.00,0.00,VWS V14.00,2013-06-26 07:01:00,
2013-06-26 01:06:00,55.6,52.4,30.61,NNW,345,0.0,0.0,89,0.00,,,0.00,0.00,VWS V14.00,2013-06-26 07:06:00,
2013-06-26 01:11:00,55.7,52.5,30.61,NNW,345,0.0,0.0,89,0.00,,,0.00,0.00,VWS V14.00,2013-06-26 07:11:00,
2013-06-26 01:16:00,55.7,52.5,30.61,NNW,345,0.0,0.0,89,0.00,,,0.00,0.00,VWS V14.00,2013-06-26 07:16:00,
2013-06-26 01:21:00,55.7,52.8,30.61,NNW,345,0.0,0.0,90,0.00,,,0.00,0.00,VWS V14.00,2013-06-26 07:21:00,
2013-06-26 01:26:00,55.7,52.8,30.61,NNW,345,0.0,0.0,90,0.00,,,0.00,0.00,VWS V14.00,2013-06-26 07:26:00,
2013-06-26 01:31:00,55.7,52.8,30.61,NNW,345,0.0,0.0,90,0.00,,,0.00,0.00,VWS V14.00,2013-06-26 07:31:00,
2013-06-26 01:36:00,55.7,52.8,30.61,NNW,345,0.0,0.0,90,0.00,,,0.00,0.00,VWS V14.00,2013-06-26 07:36:00,
2013-06-26 01:41:00,55.7,52.8,30.61,NNW,345,0.0,0.0,90,0.00,,,0.00,0.00,VWS V14.00,2013-06-26 07:41:00,
2013-06-26 01:46:00,55.7,52.8,30.61,NNW,345,0.0,0.0,90,0.00,,,0.00,0.00,VWS V14.00,2013-06-26 07:46:00,
2013-06-26 01:51:00,55.7,52.8,30.61,NNW,345,0.0,0.0,90,0.00,,,0.00,0.00,VWS V14.00,2013-06-26 07:51:00,
2013-06-26 01:56:00,55.6,52.7,30.61,NNW,345,0.0,0.0,90,0.00,,,0.00,0.00,VWS V14.00,2013-06-26 07:56:00,
2013-06-26 02:01:00,55.6,52.7,30.61,NNW,345,0.0,0.0,90,0.00,,,0.00,0.00,VWS V14.00,2013-06-26 08:01:00,
2013-06-26 02:06:00,55.6,52.7,30.61,NNW,345,0.0,0.0,90,0.00,,,0.00,0.00,VWS V14.00,2013-06-26 08:06:00,
2013-06-26 02:11:00,55.5,52.6,30.65,NNW,345,0.0,0.0,90,0.00,,,0.00,0.00,VWS V14.00,2013-06-26 08:11:00,
2013-06-26 02:16:00,55.5,52.6,30.65,NNW,345,0.0,0.0,90,0.00,,,0.00,0.00,VWS V14.00,2013-06-26 08:16:00,
2013-06-26 02:21:00,55.4,52.5,30.65,NNW,345,0.0,0.0,90,0.00,,,0.00,0.00,VWS V14.00,2013-06-26 08:21:00,
2013-06-26 02:26:00,55.4,52.5,30.65,NNW,345,0.0,0.0,90,0.00,,,0.00,0.00,VWS V14.00,2013-06-26 08:26:00,
2013-06-26 02:31:00,55.3,52.4,30.65,NNW,345,0.0,0.0,90,0.00,,,0.00,0.00,VWS V14.00,2013-06-26 08:31:00,
2013-06-26 02:36:00,55.2,52.3,30.66,NNW,345,0.0,0.0,90,0.00,,,0.00,0.00,VWS V14.00,2013-06-26 08:36:00,
2013-06-26 02:41:00,55.2,52.3,30.66,NNW,345,0.0,0.0,90,0.00,,,0.00,0.00,VWS V14.00,2013-06-26 08:41:00,
2013-06-26 02:46:00,55.2,52.3,30.66,NNW,345,0.0,0.0,90,0.00,,,0.00,0.00,VWS V14.00,2013-06-26 08:46:00,
2013-06-26 02:51:00,55.1,52.2,30.67,NNW,345,0.0,0.0,90,0.00,,,0.00,0.00,VWS V14.00,2013-06-26 08:51:00,
2013-06-26 02:56:00,55.1,52.5,30.66,NNW,345,0.0,0.0,91,0.00,,,0.00,0.00,VWS V14.00,2013-06-26 08:56:00,
2013-06-26 03:01:00,55.1,52.5,30.66,NNW,345,0.0,0.0,91,0.00,,,0.00,0.00,VWS V14.00,2013-06-26 09:01:00,
2013-06-26 03:06:00,55.1,52.2,30.67,NNW,345,0.0,0.0,90,0.00,,,0.00,0.00,VWS V14.00,2013-06-26 09:06:00,
2013-06-26 03:11:00,55.1,52.2,30.67,NNW,345,0.0,0.0,90,0.00,,,0.00,0.00,VWS V14.00,2013-06-26 09:11:00,
2013-06-26 03:16:00,55.0,52.1,30.67,NNW,345,0.0,0.0,90,0.00,,,0.00,0.00,VWS V14.00,2013-06-26 09:16:00,
2013-06-26 03:21:00,55.0,52.4,30.67,NNW,345,0.0,0.0,91,0.00,,,0.00,0.00,VWS V14.00,2013-06-26 09:21:00,
2013-06-26 03:26:00,55.0,52.1,30.67,NNW,345,0.0,0.0,90,0.00,,,0.00,0.00,VWS V14.00,2013-06-26 09:26:00,
2013-06-26 03:31:00,55.0,52.4,30.67,NNW,345,0.0,0.0,91,0.00,,,0.00,0.00,VWS V14.00,2013-06-26 09:31:00,
2013-06-26 03:36:00,55.0,52.4,30.68,NNW,345,0.0,0.0,91,0.00,,,0.00,0.00,VWS V14.00,2013-06-26 09:36:00,
2013-06-26 03:41:00,55.1,52.5,30.67,NNW,345,0.0,0.0,91,0.00,,,0.00,0.00,VWS V14.00,2013-06-26 09:41:00,
2013-06-26 03:46:00,55.1,52.5,30.68,NNW,345,0.0,0.0,91,0.00,,,0.00,0.00,VWS V14.00,2013-06-26 09:46:00,
2013-06-26 03:51:00,55.1,52.5,30.68,NNW,345,0.0,0.0,91,0.00,,,0.00,0.00,VWS V14.00,2013-06-26 09:51:00,
2013-06-26 03:56:00,55.1,52.5,30.68,NNW,345,0.0,0.0,91,0.00,,,0.00,0.00,VWS V14.00,2013-06-26 09:56:00,
2013-06-26 04:01:00,55.1,52.8,30.68,NNW,345,0.0,0.0,92,0.00,,,0.00,0.00,VWS V14.00,2013-06-26 10:01:00,
2013-06-26 04:06:00,55.0,52.4,30.69,NNW,345,0.0,0.0,91,0.00,,,0.00,0.00,VWS V14.00,2013-06-26 10:06:00,
2013-06-26 04:11:00,55.0,52.7,30.68,NNW,345,0.0,0.0,92,0.00,,,0.00,0.00,VWS V14.00,2013-06-26 10:11:00,
2013-06-26 04:16:00,54.9,52.3,30.68,NNW,345,0.0,0.0,91,0.00,,,0.00,0.00,VWS V14.00,2013-06-26 10:16:00,
2013-06-26 04:21:00,54.8,52.2,30.68,NNW,345,0.0,0.0,91,0.00,,,0.00,0.00,VWS V14.00,2013-06-26 10:21:00,
2013-06-26 04:26:00,54.7,52.4,30.68,NNW,345,0.0,0.0,92,0.00,,,0.00,0.00,VWS V14.00,2013-06-26 10:26:00,
2013-06-26 04:31:00,54.7,52.4,30.68,NNW,345,0.0,0.0,92,0.00,,,0.00,0.00,VWS V14.00,2013-06-26 10:31:00,
2013-06-26 04:36:00,54.6,52.3,30.69,NNW,345,0.0,0.0,92,0.00,,,0.00,0.00,VWS V14.00,2013-06-26 10:36:00,
2013-06-26 04:41:00,54.6,52.3,30.69,NNW,345,0.0,0.0,92,0.00,,,0.00,0.00,VWS V14.00,2013-06-26 10:41:00,
2013-06-26 04:46:00,54.5,51.9,30.69,NNW,345,0.0,0.0,91,0.00,,,0.00,0.00,VWS V14.00,2013-06-26 10:46:00,
2013-06-26 04:51:00,54.5,52.2,30.69,NNW,345,0.0,0.0,92,0.00,,,0.00,0.00,VWS V14.00,2013-06-26 10:51:00,
2013-06-26 04:56:00,54.5,52.2,30.70,NNW,345,0.0,0.0,92,0.00,,,0.00,0.00,VWS V14.00,2013-06-26 10:56:00,
2013-06-26 05:01:00,54.4,52.1,30.70,NNW,345,0.0,0.0,92,0.00,,,0.00,0.00,VWS V14.00,2013-06-26 11:01:00,
2013-06-26 05:06:00,54.4,52.1,30.70,NNW,345,0.0,0.0,92,0.00,,,0.00,0.00,VWS V14.00,2013-06-26 11:06:00,
2013-06-26 05:11:00,54.4,52.1,30.70,NNW,345,0.0,0.0,92,0.00,,,0.00,0.00,VWS V14.00,2013-06-26 11:11:00,
2013-06-26 05:16:00,54.3,52.0,30.70,NNW,345,0.0,0.0,92,0.00,,,0.00,0.00,VWS V14.00,2013-06-26 11:16:00,
2013-06-26 05:21:00,54.3,52.3,30.71,NNW,345,0.0,0.0,93,0.00,,,0.00,0.00,VWS V14.00,2013-06-26 11:21:00,
2013-06-26 05:26:00,54.3,52.0,30.71,NNW,345,0.0,0.0,92,0.00,,,0.00,0.00,VWS V14.00,2013-06-26 11:26:00,
2013-06-26 05:31:00,54.3,52.0,30.71,NNW,345,0.0,0.0,92,0.00,,,0.00,0.00,VWS V14.00,2013-06-26 11:31:00,
2013-06-26 05:36:00,54.3,52.0,30.71,NNW,345,0.0,0.0,92,0.00,,,0.00,0.00,VWS V14.00,2013-06-26 11:36:00,
2013-06-26 05:41:00,54.2,51.9,30.71,NNW,345,0.0,0.0,92,0.00,,,0.00,0.00,VWS V14.00,2013-06-26 11:41:00,
2013-06-26 05:46:00,54.2,51.9,30.72,NNW,345,0.0,0.0,92,0.00,,,0.00,0.00,VWS V14.00,2013-06-26 11:46:00,
2013-06-26 05:51:00,54.2,51.9,30.71,NNW,345,0.0,0.0,92,0.00,,,0.00,0.00,VWS V14.00,2013-06-26 11:51:00,
2013-06-26 05:56:00,54.1,51.8,30.71,NNW,345,0.0,0.0,92,0.00,,,0.00,0.00,VWS V14.00,2013-06-26 11:56:00,
2013-06-26 06:01:00,54.0,51.7,30.72,NNW,345,0.0,0.0,92,0.00,,,0.00,7.00,VWS V14.00,2013-06-26 12:01:00,
2013-06-26 06:06:00,53.9,51.6,30.72,NNW,345,0.0,0.0,92,0.00,,,0.00,11.00,VWS V14.00,2013-06-26 12:06:00,
2013-06-26 06:11:00,53.9,51.6,30.72,NNW,345,0.0,0.0,92,0.00,,,0.00,14.00,VWS V14.00,2013-06-26 12:11:00,
2013-06-26 06:16:00,53.8,51.5,30.72,NNW,345,0.0,0.0,92,0.00,,,0.00,18.00,VWS V14.00,2013-06-26 12:16:00,
2013-06-26 06:21:00,53.8,51.5,30.73,NNW,345,0.0,0.0,92,0.00,,,0.00,25.00,VWS V14.00,2013-06-26 12:21:00,
2013-06-26 06:26:00,53.8,51.5,30.74,NNW,345,0.0,0.0,92,0.00,,,0.00,32.00,VWS V14.00,2013-06-26 12:26:00,
2013-06-26 06:31:00,53.8,51.8,30.74,NNW,345,0.0,0.0,93,0.00,,,0.00,37.00,VWS V14.00,2013-06-26 12:31:00,
2013-06-26 06:36:00,53.8,51.8,30.73,NNW,345,0.0,0.0,93,0.00,,,0.00,53.00,VWS V14.00,2013-06-26 12:36:00,
2013-06-26 06:41:00,53.9,51.9,30.74,NNW,345,0.0,0.0,93,0.00,,,0.00,49.00,VWS V14.00,2013-06-26 12:41:00,
2013-06-26 06:46:00,53.9,51.9,30.74,NNW,345,0.0,0.0,93,0.00,,,0.00,44.00,VWS V14.00,2013-06-26 12:46:00,
2013-06-26 06:51:00,54.0,52.0,30.74,NNW,345,0.0,0.0,93,0.00,,,0.00,47.00,VWS V14.00,2013-06-26 12:51:00,
2013-06-26 06:56:00,54.1,52.1,30.75,NNW,345,0.0,0.0,93,0.00,,,0.00,42.00,VWS V14.00,2013-06-26 12:56:00,
2013-06-26 07:01:00,54.2,52.2,30.75,NNW,345,0.0,0.0,93,0.00,,,0.00,54.00,VWS V14.00,2013-06-26 13:01:00,
2013-06-26 07:06:00,54.2,52.2,30.75,NNW,345,0.0,0.0,93,0.00,,,0.00,53.00,VWS V14.00,2013-06-26 13:06:00,
2013-06-26 07:11:00,54.4,52.4,30.76,NNW,345,0.0,0.0,93,0.00,,,0.00,63.00,VWS V14.00,2013-06-26 13:11:00,
2013-06-26 07:16:00,54.6,52.6,30.76,NNW,345,0.0,3.0,93,0.00,,,0.00,60.00,VWS V14.00,2013-06-26 13:16:00,
2013-06-26 07:21:00,54.6,52.9,30.76,NNW,345,0.0,3.0,94,0.00,,,0.00,58.00,VWS V14.00,2013-06-26 13:21:00,
2013-06-26 07:26:00,54.8,53.1,30.76,NNW,345,0.0,0.0,94,0.00,,,0.00,56.00,VWS V14.00,2013-06-26 13:26:00,
2013-06-26 07:31:00,54.8,53.1,30.76,NNW,345,0.0,0.0,94,0.00,,,0.00,51.00,VWS V14.00,2013-06-26 13:31:00,
2013-06-26 07:36:00,54.9,53.2,30.76,NNW,345,0.0,0.0,94,0.00,,,0.00,44.00,VWS V14.00,2013-06-26 13:36:00,
2013-06-26 07:41:00,55.0,53.0,30.76,NNW,345,0.0,2.0,93,0.00,,,0.00,42.00,VWS V14.00,2013-06-26 13:41:00,
2013-06-26 07:46:00,55.0,53.0,30.76,NNW,345,0.0,2.0,93,0.00,,,0.00,47.00,VWS V14.00,2013-06-26 13:46:00,
2013-06-26 07:51:00,55.0,53.0,30.76,NNW,345,0.0,2.0,93,0.00,,,0.00,44.00,VWS V14.00,2013-06-26 13:51:00,
2013-06-26 07:56:00,55.0,53.0,30.77,NNW,345,0.0,0.0,93,0.00,,,0.00,49.00,VWS V14.00,2013-06-26 13:56:00,
2013-06-26 08:01:00,55.1,53.1,30.77,NNW,345,0.0,0.0,93,0.00,,,0.00,62.00,VWS V14.00,2013-06-26 14:01:00,
2013-06-26 08:06:00,55.2,53.2,30.77,NNW,345,0.0,0.0,93,0.00,,,0.00,62.00,VWS V14.00,2013-06-26 14:06:00,
2013-06-26 08:11:00,55.3,53.3,30.78,NNW,345,0.0,0.0,93,0.00,,,0.00,56.00,VWS V14.00,2013-06-26 14:11:00,
2013-06-26 08:16:00,55.3,53.3,30.78,NNW,345,0.0,0.0,93,0.00,,,0.00,77.00,VWS V14.00,2013-06-26 14:16:00,
2013-06-26 08:21:00,55.3,53.3,30.78,NNW,345,0.0,0.0,93,0.00,,,0.00,104.00,VWS V14.00,2013-06-26 14:21:00,
2013-06-26 08:26:00,55.4,53.4,30.79,NNW,345,0.0,0.0,93,0.00,,,0.00,102.00,VWS V14.00,2013-06-26 14:26:00,
2013-06-26 08:31:00,55.6,53.6,30.79,NNW,345,0.0,0.0,93,0.00,,,0.00,160.00,VWS V14.00,2013-06-26 14:31:00,
2013-06-26 08:36:00,55.9,53.9,30.79,NNW,345,2.0,2.0,93,0.00,,,0.00,125.00,VWS V14.00,2013-06-26 14:36:00,
2013-06-26 08:41:00,55.9,53.9,30.78,NNW,345,0.0,1.0,93,0.00,,,0.00,174.00,VWS V14.00,2013-06-26 14:41:00,
2013-06-26 08:46:00,56.2,54.2,30.78,NNW,345,0.0,1.0,93,0.00,,,0.00,246.00,VWS V14.00,2013-06-26 14:46:00,
2013-06-26 08:51:00,56.4,54.4,30.78,NNW,345,0.0,2.0,93,0.00,,,0.00,262.00,VWS V14.00,2013-06-26 14:51:00,
2013-06-26 08:56:00,56.7,54.7,30.78,NNW,345,0.0,0.0,93,0.00,,,0.00,237.00,VWS V14.00,2013-06-26 14:56:00,
2013-06-26 09:01:00,56.9,54.6,30.78,NNW,345,0.0,3.0,92,0.00,,,0.00,311.00,VWS V14.00,2013-06-26 15:01:00,
2013-06-26 09:06:00,57.2,54.6,30.78,NNW,345,0.0,3.0,91,0.00,,,0.00,313.00,VWS V14.00,2013-06-26 15:06:00,
2013-06-26 09:11:00,57.6,54.7,30.79,NNW,345,0.0,0.0,90,0.00,,,0.00,306.00,VWS V14.00,2013-06-26 15:11:00,
2013-06-26 09:16:00,57.9,54.7,30.79,NNW,345,0.0,0.0,89,0.00,,,0.00,269.00,VWS V14.00,2013-06-26 15:16:00,
2013-06-26 09:21:00,58.4,54.9,30.79,NNW,345,3.0,4.0,88,0.00,,,0.00,279.00,VWS V14.00,2013-06-26 15:21:00,
2013-06-26 09:26:00,59.0,55.5,30.78,NNW,345,3.0,4.0,88,0.00,,,0.00,304.00,VWS V14.00,2013-06-26 15:26:00,
2013-06-26 09:31:00,59.0,55.1,30.79,NNW,345,0.0,5.0,87,0.00,,,0.00,476.00,VWS V14.00,2013-06-26 15:31:00,
2013-06-26 09:36:00,59.3,54.8,30.79,NNW,345,1.0,5.0,85,0.00,,,0.00,366.00,VWS V14.00,2013-06-26 15:36:00,
2013-06-26 09:41:00,59.6,55.1,30.79,NNW,345,4.0,4.0,85,0.00,,,0.00,360.00,VWS V14.00,2013-06-26 15:41:00,
2013-06-26 09:46:00,59.8,55.3,30.79,NNW,345,1.0,4.0,85,0.00,,,0.00,338.00,VWS V14.00,2013-06-26 15:46:00,
2013-06-26 09:51:00,60.0,55.5,30.79,NNW,345,0.0,4.0,85,0.00,,,0.00,186.00,VWS V14.00,2013-06-26 15:51:00,
2013-06-26 09:56:00,60.1,55.3,30.79,NNW,345,1.0,3.0,84,0.00,,,0.00,243.00,VWS V14.00,2013-06-26 15:56:00,
2013-06-26 10:01:00,60.2,55.0,30.79,NNW,345,1.0,5.0,83,0.00,,,0.00,388.00,VWS V14.00,2013-06-26 16:01:00,
2013-06-26 10:06:00,60.3,55.1,30.79,NNW,345,2.0,5.0,83,0.00,,,0.00,343.00,VWS V14.00,2013-06-26 16:06:00,
2013-06-26 10:11:00,60.4,55.2,30.79,North,351,0.0,4.0,83,0.00,,,0.00,431.00,VWS V14.00,2013-06-26 16:11:00,
2013-06-26 10:16:00,60.6,55.4,30.78,North,351,2.0,4.0,83,0.00,,,0.00,410.00,VWS V14.00,2013-06-26 16:16:00,
2013-06-26 10:21:00,60.8,55.6,30.78,NNW,331,5.0,6.0,83,0.00,,,0.00,503.00,VWS V14.00,2013-06-26 16:21:00,
2013-06-26 10:26:00,61.1,55.6,30.78,NNW,342,3.0,6.0,82,0.00,,,0.00,411.00,VWS V14.00,2013-06-26 16:26:00,
2013-06-26 10:31:00,61.3,56.1,30.78,NW,318,4.0,6.0,83,0.00,,,0.00,577.00,VWS V14.00,2013-06-26 16:31:00,
2013-06-26 10:36:00,61.6,55.7,30.78,North,349,2.0,7.0,81,0.00,,,0.00,548.00,VWS V14.00,2013-06-26 16:36:00,
2013-06-26 10:41:00,61.8,55.9,30.78,NNW,343,3.0,4.0,81,0.00,,,0.00,397.00,VWS V14.00,2013-06-26 16:41:00,
2013-06-26 10:46:00,62.1,55.9,30.78,NNW,342,0.0,4.0,80,0.00,,,0.00,512.00,VWS V14.00,2013-06-26 16:46:00,
2013-06-26 10:51:00,62.6,57.0,30.77,NNW,343,0.0,4.0,82,0.00,,,0.00,937.00,VWS V14.00,2013-06-26 16:51:00,
2013-06-26 10:56:00,63.0,56.4,30.77,NNW,332,4.0,5.0,79,0.00,,,0.00,420.00,VWS V14.00,2013-06-26 16:56:00,
2013-06-26 11:01:00,63.1,56.5,30.77,NW,322,4.0,6.0,79,0.00,,,0.00,325.00,VWS V14.00,2013-06-26 17:01:00,
2013-06-26 11:06:00,63.0,56.4,30.77,NNW,344,2.0,7.0,79,0.00,,,0.00,350.00,VWS V14.00,2013-06-26 17:06:00,
2013-06-26 11:11:00,62.8,55.5,30.78,NNW,340,3.0,6.0,77,0.00,,,0.00,265.00,VWS V14.00,2013-06-26 17:11:00,
2013-06-26 11:16:00,62.6,56.0,30.79,NNW,345,6.0,6.0,79,0.00,,,0.00,429.00,VWS V14.00,2013-06-26 17:16:00,
2013-06-26 11:21:00,62.7,56.5,30.79,NNW,334,0.0,6.0,80,0.00,,,0.00,374.00,VWS V14.00,2013-06-26 17:21:00,
2013-06-26 11:26:00,62.8,56.2,30.79,NNW,341,1.0,7.0,79,0.00,,,0.00,471.00,VWS V14.00,2013-06-26 17:26:00,
2013-06-26 11:31:00,63.1,56.5,30.78,NNW,348,7.0,7.0,79,0.00,,,0.00,536.00,VWS V14.00,2013-06-26 17:31:00,
2013-06-26 11:36:00,63.4,56.4,30.79,NNW,331,3.0,7.0,78,0.00,,,0.00,821.00,VWS V14.00,2013-06-26 17:36:00,
2013-06-26 11:41:00,64.1,56.8,30.77,NNW,347,0.0,5.0,77,0.00,,,0.00,1032.00,VWS V14.00,2013-06-26 17:41:00,
2013-06-26 11:46:00,64.7,56.6,30.77,NNW,347,0.0,5.0,75,0.00,,,0.00,411.00,VWS V14.00,2013-06-26 17:46:00,
2013-06-26 11:51:00,64.9,56.8,30.77,NNW,347,0.0,5.0,75,0.00,,,0.00,381.00,VWS V14.00,2013-06-26 17:51:00,
2013-06-26 11:56:00,65.2,56.7,30.77,NNW,346,2.0,4.0,74,0.00,,,0.00,436.00,VWS V14.00,2013-06-26 17:56:00,
2013-06-26 12:01:00,65.4,57.3,30.76,NNW,347,0.0,4.0,75,0.00,,,0.00,599.00,VWS V14.00,2013-06-26 18:01:00,
2013-06-26 12:06:00,66.6,56.1,30.76,NNW,344,0.0,4.0,69,0.00,,,0.00,599.00,VWS V14.00,2013-06-26 18:06:00,
2013-06-26 12:11:00,67.5,56.2,30.75,NNW,344,0.0,0.0,67,0.00,,,0.00,466.00,VWS V14.00,2013-06-26 18:11:00,
2013-06-26 12:16:00,68.6,57.2,30.74,NNW,344,0.0,5.0,67,0.00,,,0.00,1130.00,VWS V14.00,2013-06-26 18:16:00,
2013-06-26 12:21:00,69.8,55.8,30.74,NNW,342,0.0,5.0,61,0.00,,,0.00,1192.00,VWS V14.00,2013-06-26 18:21:00,
2013-06-26 12:26:00,70.5,55.5,30.74,SSW,192,0.0,5.0,59,0.00,,,0.00,659.00,VWS V14.00,2013-06-26 18:26:00,
2013-06-26 12:31:00,71.3,57.2,30.73,SSW,213,0.0,5.0,61,0.00,,,0.00,1288.00,VWS V14.00,2013-06-26 18:31:00,
2013-06-26 12:36:00,71.8,58.1,30.72,NNW,338,3.0,7.0,62,0.00,,,0.00,1185.00,VWS V14.00,2013-06-26 18:36:00,
2013-06-26 12:41:00,72.1,58.4,30.72,NNW,329,1.0,5.0,62,0.00,,,0.00,1034.00,VWS V14.00,2013-06-26 18:41:00,
2013-06-26 12:46:00,72.4,59.1,30.73,NW,311,0.0,5.0,63,0.00,,,0.00,1034.00,VWS V14.00,2013-06-26 18:46:00,
2013-06-26 12:51:00,72.4,56.8,30.72,NW,311,0.0,5.0,58,0.00,,,0.00,323.00,VWS V14.00,2013-06-26 18:51:00,
2013-06-26 12:56:00,72.0,55.0,30.73,South,184,0.0,4.0,55,0.00,,,0.00,216.00,VWS V14.00,2013-06-26 18:56:00,
2013-06-26 13:01:00,71.5,56.0,30.73,SW,217,0.0,4.0,58,0.00,,,0.00,176.00,VWS V14.00,2013-06-26 19:01:00,
2013-06-26 13:06:00,71.0,56.0,30.74,SW,217,2.0,4.0,59,0.00,,,0.00,169.00,VWS V14.00,2013-06-26 19:06:00,
2013-06-26 13:11:00,70.4,57.7,30.74,SW,219,0.0,4.0,64,0.01,,,0.01,156.00,VWS V14.00,2013-06-26 19:11:00,
2013-06-26 13:16:00,69.8,57.5,30.74,SW,219,0.0,4.0,65,0.02,,,0.02,160.00,VWS V14.00,2013-06-26 19:16:00,
2013-06-26 13:21:00,69.3,57.9,30.76,West,273,2.0,6.0,67,0.04,,,0.04,155.00,VWS V14.00,2013-06-26 19:21:00,
2013-06-26 13:26:00,67.9,53.5,30.76,SSE,150,3.0,7.0,60,0.05,,,0.05,185.00,VWS V14.00,2013-06-26 19:26:00,
2013-06-26 13:31:00,66.7,55.8,30.77,SSE,162,0.0,7.0,68,0.05,,,0.05,251.00,VWS V14.00,2013-06-26 19:31:00,
2013-06-26 13:36:00,65.8,55.4,30.77,SSE,148,6.0,7.0,69,0.05,,,0.05,213.00,VWS V14.00,2013-06-26 19:36:00,
2013-06-26 13:41:00,65.1,55.5,30.78,SSE,154,11.0,11.0,71,0.05,,,0.05,211.00,VWS V14.00,2013-06-26 19:41:00,
2013-06-26 13:46:00,64.7,55.9,30.78,SSE,156,7.0,13.0,73,0.05,,,0.05,218.00,VWS V14.00,2013-06-26 19:46:00,
2013-06-26 13:51:00,64.5,56.0,30.78,SSE,152,5.0,13.0,74,0.05,,,0.05,202.00,VWS V14.00,2013-06-26 19:51:00,
2013-06-26 13:56:00,64.4,55.6,30.78,SSE,159,10.0,11.0,73,0.05,,,0.05,199.00,VWS V14.00,2013-06-26 19:56:00,
2013-06-26 14:01:00,64.4,55.6,30.78,South,170,3.0,14.0,73,0.05,,,0.05,272.00,VWS V14.00,2013-06-26 20:01:00,
2013-06-26 14:06:00,64.4,55.9,30.78,SSE,161,11.0,14.0,74,0.05,,,0.05,274.00,VWS V14.00,2013-06-26 20:06:00,
2013-06-26 14:11:00,64.5,55.3,30.78,SSE,159,13.0,15.0,72,0.05,,,0.05,374.00,VWS V14.00,2013-06-26 20:11:00,
2013-06-26 14:16:00,64.8,55.6,30.78,SSE,159,13.0,17.0,72,0.05,,,0.05,399.00,VWS V14.00,2013-06-26 20:16:00,
2013-06-26 14:21:00,64.9,56.0,30.78,SSE,148,7.0,17.0,73,0.05,,,0.05,272.00,VWS V14.00,2013-06-26 20:21:00,
2013-06-26 14:26:00,64.9,55.7,30.78,SE,146,11.0,13.0,72,0.01,,,0.05,297.00,VWS V14.00,2013-06-26 20:26:00,
2013-06-26 14:31:00,64.9,55.3,30.78,SSE,149,8.0,13.0,71,0.01,,,0.05,360.00,VWS V14.00,2013-06-26 20:31:00,
2013-06-26 14:36:00,65.0,54.2,30.78,SE,134,12.0,16.0,68,0.01,,,0.05,320.00,VWS V14.00,2013-06-26 20:36:00,
2013-06-26 14:41:00,65.0,53.4,30.78,SE,143,9.0,13.0,66,0.00,,,0.05,258.00,VWS V14.00,2013-06-26 20:41:00,
2013-06-26 14:46:00,65.0,53.8,30.78,SSE,149,10.0,13.0,67,0.00,,,0.05,204.00,VWS V14.00,2013-06-26 20:46:00,
2013-06-26 14:51:00,65.0,53.8,30.78,SE,146,5.0,13.0,67,0.00,,,0.05,193.00,VWS V14.00,2013-06-26 20:51:00,
2013-06-26 14:56:00,64.9,52.9,30.78,SE,146,5.0,14.0,65,0.00,,,0.05,193.00,VWS V14.00,2013-06-26 20:56:00,
2013-06-26 15:01:00,64.9,53.3,30.78,ESE,123,4.0,14.0,66,0.00,,,0.05,200.00,VWS V14.00,2013-06-26 21:01:00,
2013-06-26 15:06:00,65.0,53.8,30.78,SSE,149,3.0,14.0,67,0.00,,,0.05,214.00,VWS V14.00,2013-06-26 21:06:00,
2013-06-26 15:11:00,65.1,54.7,30.78,SSE,148,4.0,7.0,69,0.00,,,0.05,220.00,VWS V14.00,2013-06-26 21:11:00,
2013-06-26 15:16:00,65.3,53.7,30.78,SSE,158,3.0,11.0,66,0.00,,,0.05,276.00,VWS V14.00,2013-06-26 21:16:00,
2013-06-26 15:21:00,65.6,52.2,30.78,SSE,148,7.0,12.0,62,0.00,,,0.05,327.00,VWS V14.00,2013-06-26 21:21:00,
2013-06-26 15:26:00,65.8,52.0,30.78,SSE,160,14.0,14.0,61,0.00,,,0.05,339.00,VWS V14.00,2013-06-26 21:26:00,
2013-06-26 15:31:00,66.1,51.8,30.79,South,172,13.0,15.0,60,0.00,,,0.05,425.00,VWS V14.00,2013-06-26 21:31:00,
2013-06-26 15:36:00,66.6,52.3,30.78,SE,136,11.0,15.0,60,0.00,,,0.05,482.00,VWS V14.00,2013-06-26 21:36:00,
2013-06-26 15:41:00,67.0,52.7,30.78,SE,144,14.0,14.0,60,0.00,,,0.05,490.00,VWS V14.00,2013-06-26 21:41:00,
2013-06-26 15:46:00,67.5,52.7,30.78,SSE,156,4.0,14.0,59,0.00,,,0.05,371.00,VWS V14.00,2013-06-26 21:46:00,
2013-06-26 15:51:00,67.7,51.9,30.78,SSE,158,10.0,14.0,57,0.00,,,0.05,348.00,VWS V14.00,2013-06-26 21:51:00,
2013-06-26 15:56:00,67.9,51.6,30.78,SSE,167,4.0,11.0,56,0.00,,,0.05,374.00,VWS V14.00,2013-06-26 21:56:00,
2013-06-26 16:01:00,68.2,52.9,30.77,SSE,159,6.0,11.0,58,0.00,,,0.05,364.00,VWS V14.00,2013-06-26 22:01:00,
2013-06-26 16:06:00,68.6,51.3,30.77,SE,144,6.0,11.0,54,0.00,,,0.05,387.00,VWS V14.00,2013-06-26 22:06:00,
2013-06-26 16:11:00,68.9,51.6,30.78,SE,130,8.0,14.0,54,0.00,,,0.05,571.00,VWS V14.00,2013-06-26 22:11:00,
2013-06-26 16:16:00,69.4,53.5,30.77,SSE,148,9.0,15.0,57,0.00,,,0.05,434.00,VWS V14.00,2013-06-26 22:16:00,
2013-06-26 16:21:00,70.0,54.1,30.76,SSE,167,4.0,15.0,57,0.00,,,0.05,705.00,VWS V14.00,2013-06-26 22:21:00,
2013-06-26 16:26:00,70.6,54.6,30.76,SSE,148,4.0,13.0,57,0.00,,,0.05,445.00,VWS V14.00,2013-06-26 22:26:00,
2013-06-26 16:31:00,71.3,54.3,30.76,South,173,6.0,13.0,55,0.00,,,0.05,445.00,VWS V14.00,2013-06-26 22:31:00,
2013-06-26 16:36:00,72.1,53.0,30.75,SSE,167,1.0,13.0,51,0.00,,,0.05,383.00,VWS V14.00,2013-06-26 22:36:00,
2013-06-26 16:41:00,72.3,52.6,30.75,SSE,157,7.0,15.0,50,0.00,,,0.05,497.00,VWS V14.00,2013-06-26 22:41:00,
2013-06-26 16:46:00,72.2,53.6,30.75,South,182,3.0,15.0,52,0.00,,,0.05,343.00,VWS V14.00,2013-06-26 22:46:00,
2013-06-26 16:51:00,72.0,52.9,30.75,South,174,7.0,15.0,51,0.00,,,0.05,367.00,VWS V14.00,2013-06-26 22:51:00,
2013-06-26 16:56:00,71.6,52.5,30.75,SSE,156,7.0,7.0,51,0.00,,,0.05,258.00,VWS V14.00,2013-06-26 22:56:00,
2013-06-26 17:01:00,71.3,52.3,30.76,SSE,162,4.0,8.0,51,0.00,,,0.05,227.00,VWS V14.00,2013-06-26 23:01:00,
2013-06-26 17:06:00,71.0,53.5,30.76,SSE,167,5.0,8.0,54,0.00,,,0.05,237.00,VWS V14.00,2013-06-26 23:06:00,
2013-06-26 17:11:00,70.8,52.3,30.76,South,170,6.0,6.0,52,0.00,,,0.05,297.00,VWS V14.00,2013-06-26 23:11:00,
2013-06-26 17:16:00,70.7,54.2,30.76,SSE,166,4.0,7.0,56,0.00,,,0.05,367.00,VWS V14.00,2013-06-26 23:16:00,
2013-06-26 17:21:00,71.1,53.6,30.76,SSE,153,0.0,7.0,54,0.00,,,0.05,339.00,VWS V14.00,2013-06-26 23:21:00,
2013-06-26 17:26:00,71.3,53.3,30.76,SSE,163,2.0,4.0,53,0.00,,,0.05,250.00,VWS V14.00,2013-06-26 23:26:00,
2013-06-26 17:31:00,71.3,53.8,30.76,SSE,149,0.0,7.0,54,0.00,,,0.05,229.00,VWS V14.00,2013-06-26 23:31:00,
2013-06-26 17:36:00,71.3,52.3,30.77,SSE,150,3.0,7.0,51,0.00,,,0.05,186.00,VWS V14.00,2013-06-26 23:36:00,
2013-06-26 17:41:00,71.3,51.2,30.77,SSE,149,0.0,3.0,49,0.00,,,0.05,197.00,VWS V14.00,2013-06-26 23:41:00,
2013-06-26 17:46:00,71.3,51.2,30.77,SSE,150,0.0,3.0,49,0.00,,,0.05,223.00,VWS V14.00,2013-06-26 23:46:00,
2013-06-26 17:51:00,71.3,54.3,30.78,SSE,150,0.0,3.0,55,0.00,,,0.05,193.00,VWS V14.00,2013-06-26 23:51:00,
2013-06-26 17:56:00,71.0,54.5,30.77,NW,326,7.0,10.0,56,0.00,,,0.05,160.00,VWS V14.00,2013-06-26 23:56:00,
2013-06-26 18:01:00,70.0,55.5,30.78,NNW,338,6.0,10.0,60,0.00,,,0.05,181.00,VWS V14.00,2013-06-27 00:01:00,
2013-06-26 18:06:00,69.1,55.5,30.79,NNW,343,4.0,10.0,62,0.00,,,0.05,243.00,VWS V14.00,2013-06-27 00:06:00,
2013-06-26 18:11:00,68.4,55.8,30.79,North,360,13.0,16.0,64,0.00,,,0.05,237.00,VWS V14.00,2013-06-27 00:11:00,
2013-06-26 18:16:00,67.5,54.5,30.79,NE,37,4.0,16.0,63,0.00,,,0.05,176.00,VWS V14.00,2013-06-27 00:16:00,
2013-06-26 18:21:00,67.2,53.8,30.80,NNE,19,2.0,16.0,62,0.00,,,0.05,345.00,VWS V14.00,2013-06-27 00:21:00,
2013-06-26 18:26:00,67.4,54.4,30.80,North,9,8.0,8.0,63,0.00,,,0.05,283.00,VWS V14.00,2013-06-27 00:26:00,
2013-06-26 18:31:00,67.7,54.2,30.78,NNE,17,1.0,13.0,62,0.00,,,0.05,169.00,VWS V14.00,2013-06-27 00:31:00,
2013-06-26 18:36:00,67.7,53.8,30.78,North,360,2.0,13.0,61,0.00,,,0.05,153.00,VWS V14.00,2013-06-27 00:36:00,
2013-06-26 18:41:00,67.4,54.4,30.80,NNE,24,5.0,9.0,63,0.00,,,0.05,118.00,VWS V14.00,2013-06-27 00:41:00,
2013-06-26 18:46:00,67.0,53.1,30.80,NNW,333,4.0,11.0,61,0.00,,,0.05,109.00,VWS V14.00,2013-06-27 00:46:00,
2013-06-26 18:51:00,66.6,53.6,30.80,North,360,0.0,11.0,63,0.00,,,0.05,77.00,VWS V14.00,2013-06-27 00:51:00,
2013-06-26 18:56:00,66.2,52.8,30.80,North,360,6.0,9.0,62,0.00,,,0.05,72.00,VWS V14.00,2013-06-27 00:56:00,
2013-06-26 19:01:00,65.8,52.4,30.80,North,360,7.0,9.0,62,0.00,,,0.05,56.00,VWS V14.00,2013-06-27 01:01:00,
2013-06-26 19:06:00,65.6,53.1,30.80,NNW,348,2.0,9.0,64,0.00,,,0.05,46.00,VWS V14.00,2013-06-27 01:06:00,
2013-06-26 19:11:00,65.3,52.8,30.80,North,355,2.0,6.0,64,0.00,,,0.05,56.00,VWS V14.00,2013-06-27 01:11:00,
2013-06-26 19:16:00,65.2,54.0,30.80,North,355,0.0,6.0,67,0.00,,,0.05,62.00,VWS V14.00,2013-06-27 01:16:00,
2013-06-26 19:21:00,65.1,55.1,30.81,North,355,0.0,6.0,70,0.01,,,0.06,46.00,VWS V14.00,2013-06-27 01:21:00,
2013-06-26 19:26:00,64.8,55.6,30.81,North,355,0.0,0.0,72,0.01,,,0.06,76.00,VWS V14.00,2013-06-27 01:26:00,
2013-06-26 19:31:00,64.5,56.0,30.80,North,355,0.0,1.0,74,0.01,,,0.06,120.00,VWS V14.00,2013-06-27 01:31:00,
2013-06-26 19:36:00,64.1,55.7,30.81,North,355,0.0,1.0,74,0.01,,,0.06,83.00,VWS V14.00,2013-06-27 01:36:00,
2013-06-26 19:41:00,63.8,55.4,30.81,North,355,0.0,3.0,74,0.01,,,0.06,179.00,VWS V14.00,2013-06-27 01:41:00,
2013-06-26 19:46:00,63.6,54.4,30.81,North,355,0.0,3.0,72,0.01,,,0.06,62.00,VWS V14.00,2013-06-27 01:46:00,
2013-06-26 19:51:00,63.4,55.0,30.82,North,355,0.0,4.0,74,0.01,,,0.06,74.00,VWS V14.00,2013-06-27 01:51:00,
2013-06-26 19:56:00,63.4,55.0,30.82,North,355,0.0,0.0,74,0.01,,,0.06,69.00,VWS V14.00,2013-06-27 01:56:00,
2013-06-26 20:01:00,63.4,55.7,30.82,North,355,0.0,0.0,76,0.01,,,0.06,54.00,VWS V14.00,2013-06-27 02:01:00,
2013-06-26 20:06:00,63.4,55.7,30.82,North,355,0.0,1.0,76,0.01,,,0.06,37.00,VWS V14.00,2013-06-27 02:06:00,
2013-06-26 20:11:00,63.2,55.2,30.82,NNW,336,2.0,6.0,75,0.01,,,0.06,32.00,VWS V14.00,2013-06-27 02:11:00,
2013-06-26 20:16:00,63.1,56.1,30.82,NNW,336,0.0,6.0,78,0.01,,,0.06,30.00,VWS V14.00,2013-06-27 02:16:00,
2013-06-26 20:21:00,62.8,55.5,30.82,NNW,339,3.0,8.0,77,0.01,,,0.06,35.00,VWS V14.00,2013-06-27 02:21:00,
2013-06-26 20:26:00,62.5,55.2,30.82,NNW,336,4.0,6.0,77,0.00,,,0.06,21.00,VWS V14.00,2013-06-27 02:26:00,
2013-06-26 20:31:00,62.2,55.3,30.84,NNW,336,4.0,6.0,78,0.00,,,0.06,12.00,VWS V14.00,2013-06-27 02:31:00,
2013-06-26 20:36:00,61.9,55.3,30.84,NNW,337,2.0,6.0,79,0.00,,,0.06,7.00,VWS V14.00,2013-06-27 02:36:00,
2013-06-26 20:41:00,61.6,53.6,30.84,NNW,348,6.0,11.0,75,0.00,,,0.06,0.00,VWS V14.00,2013-06-27 02:41:00,
2013-06-26 20:46:00,61.6,53.6,30.85,NNE,28,1.0,11.0,75,0.00,,,0.06,0.00,VWS V14.00,2013-06-27 02:46:00,
2013-06-26 20:51:00,61.6,53.2,30.85,North,11,0.0,11.0,74,0.00,,,0.06,5.00,VWS V14.00,2013-06-27 02:51:00,
2013-06-26 20:56:00,61.6,53.2,30.85,North,11,0.0,1.0,74,0.00,,,0.06,5.00,VWS V14.00,2013-06-27 02:56:00,
2013-06-26 21:01:00,61.4,53.0,30.85,NNE,15,0.0,5.0,74,0.00,,,0.06,7.00,VWS V14.00,2013-06-27 03:01:00,
2013-06-26 21:06:00,61.3,53.0,30.85,NNW,342,2.0,6.0,74,0.00,,,0.06,0.00,VWS V14.00,2013-06-27 03:06:00,
2013-06-26 21:11:00,61.1,52.8,30.84,North,11,0.0,4.0,74,0.00,,,0.06,0.00,VWS V14.00,2013-06-27 03:11:00,
2013-06-26 21:16:00,60.9,52.6,30.84,North,360,1.0,4.0,74,0.00,,,0.06,0.00,VWS V14.00,2013-06-27 03:16:00,
2013-06-26 21:21:00,60.8,52.1,30.85,North,11,2.0,5.0,73,0.00,,,0.06,0.00,VWS V14.00,2013-06-27 03:21:00,
2013-06-26 21:26:00,60.8,52.5,30.85,North,360,3.0,5.0,74,0.00,,,0.06,0.00,VWS V14.00,2013-06-27 03:26:00,
2013-06-26 21:31:00,60.7,52.7,30.84,North,355,1.0,5.0,75,0.00,,,0.06,0.00,VWS V14.00,2013-06-27 03:31:00,
2013-06-26 21:36:00,60.6,52.3,30.84,North,5,0.0,5.0,74,0.00,,,0.06,0.00,VWS V14.00,2013-06-27 03:36:00,
2013-06-26 21:41:00,60.5,51.8,30.85,North,5,0.0,1.0,73,0.00,,,0.06,0.00,VWS V14.00,2013-06-27 03:41:00,
2013-06-26 21:46:00,60.4,51.7,30.86,North,5,0.0,1.0,73,0.00,,,0.06,0.00,VWS V14.00,2013-06-27 03:46:00,
2013-06-26 21:51:00,60.4,51.7,30.86,North,5,0.0,1.0,73,0.00,,,0.06,0.00,VWS V14.00,2013-06-27 03:51:00,
2013-06-26 21:56:00,60.4,51.7,30.87,North,5,3.0,3.0,73,0.00,,,0.06,0.00,VWS V14.00,2013-06-27 03:56:00,
2013-06-26 22:01:00,60.5,52.5,30.87,North,360,0.0,3.0,75,0.00,,,0.06,0.00,VWS V14.00,2013-06-27 04:01:00,
2013-06-26 22:02:00,60.4,52.5,30.87,North,360,1.0,3.0,75,0.00,,,0.06,0.00,VWS V14.00,2013-06-27 04:02:00,
2013-06-26 22:07:00,60.2,51.5,30.86,NW,320,2.0,3.0,73,0.00,,,0.06,0.00,VWS V14.00,2013-06-27 04:07:00,
2013-06-26 22:12:00,59.8,51.9,30.86,NW,319,0.0,3.0,75,0.00,,,0.06,0.00,VWS V14.00,2013-06-27 04:12:00,
2013-06-26 22:17:00,59.6,51.3,30.87,NW,320,0.0,3.0,74,0.00,,,0.06,0.00,VWS V14.00,2013-06-27 04:17:00,
2013-06-26 22:22:00,59.4,51.5,30.88,NW,320,0.0,0.0,75,0.00,,,0.06,0.00,VWS V14.00,2013-06-27 04:22:00,
2013-06-26 22:27:00,59.2,51.3,30.88,NW,319,0.0,2.0,75,0.00,,,0.06,0.00,VWS V14.00,2013-06-27 04:27:00,
2013-06-26 22:32:00,59.0,51.1,30.88,NW,320,0.0,2.0,75,0.00,,,0.06,0.00,VWS V14.00,2013-06-27 04:32:00,
2013-06-26 22:37:00,59.0,51.5,30.88,NW,320,0.0,0.0,76,0.00,,,0.06,0.00,VWS V14.00,2013-06-27 04:37:00,
2013-06-26 22:42:00,59.0,51.8,30.88,NW,319,0.0,0.0,77,0.00,,,0.06,0.00,VWS V14.00,2013-06-27 04:42:00,
2013-06-26 22:47:00,59.0,51.8,30.88,NW,319,0.0,2.0,77,0.00,,,0.06,0.00,VWS V14.00,2013-06-27 04:47:00,
2013-06-26 22:52:00,58.9,52.1,30.88,NW,319,0.0,0.0,78,0.01,,,0.07,0.00,VWS V14.00,2013-06-27 04:52:00,
2013-06-26 22:57:00,58.8,52.0,30.88,NW,320,0.0,0.0,78,0.01,,,0.07,0.00,VWS V14.00,2013-06-27 04:57:00,
2013-06-26 23:02:00,58.6,51.8,30.89,NW,320,0.0,0.0,78,0.01,,,0.07,0.00,VWS V14.00,2013-06-27 05:02:00,
2013-06-26 23:07:00,58.6,52.1,30.87,NW,320,0.0,0.0,79,0.01,,,0.07,0.00,VWS V14.00,2013-06-27 05:07:00,
2013-06-26 23:12:00,58.5,52.0,30.87,NW,320,0.0,0.0,79,0.01,,,0.07,0.00,VWS V14.00,2013-06-27 05:12:00,
2013-06-26 23:17:00,58.4,52.3,30.88,NW,320,0.0,0.0,80,0.01,,,0.07,0.00,VWS V14.00,2013-06-27 05:17:00,
2013-06-26 23:22:00,58.2,51.7,30.88,NW,320,0.0,0.0,79,0.01,,,0.07,0.00,VWS V14.00,2013-06-27 05:22:00,
2013-06-26 23:27:00,58.1,51.3,30.88,NW,320,0.0,0.0,78,0.01,,,0.07,0.00,VWS V14.00,2013-06-27 05:27:00,
2013-06-26 23:32:00,58.0,51.5,30.88,NW,320,0.0,0.0,79,0.01,,,0.07,0.00,VWS V14.00,2013-06-27 05:32:00,
2013-06-26 23:37:00,57.9,51.4,30.88,NW,320,0.0,0.0,79,0.01,,,0.07,0.00,VWS V14.00,2013-06-27 05:37:00,
2013-06-26 23:42:00,57.8,51.3,30.89,NW,320,0.0,0.0,79,0.01,,,0.07,0.00,VWS V14.00,2013-06-27 05:42:00,
2013-06-26 23:47:00,57.8,51.3,30.88,NW,319,0.0,0.0,79,0.01,,,0.07,0.00,VWS V14.00,2013-06-27 05:47:00,
2013-06-26 23:52:00,57.7,51.2,30.88,NW,320,0.0,0.0,79,0.00,,,0.07,0.00,VWS V14.00,2013-06-27 05:52:00,
2013-06-26 23:57:00,57.7,51.2,30.89,NW,320,0.0,0.0,79,0.00,,,0.07,0.00,VWS V14.00,2013-06-27 05:57:00,